| time (UTC) | temp F | wind direction | speed MPH | gust MPH | rain 1hr in | rain 24hr in | rain mn in | humidity % | barometer mb |
| 20260509121728 | 46 | 10 | 5.0 | 0.0 | 0.00 | 0.00 | 0.00 | 81 | |
| 20260509111728 | 46 | 20 | 5.0 | 0.0 | 0.00 | 0.00 | 0.00 | 81 | |
| 20260509101929 | 45 | 10 | 6.0 | 0.0 | 0.00 | 0.00 | 0.00 | 81 | |
| 20260509091728 | 46 | 50 | 3.0 | 0.0 | 0.00 | 0.00 | 0.00 | 81 | |
| 20260509081729 | 45 | 10 | 7.0 | 0.0 | 0.00 | 0.00 | 0.00 | 81 | |
| 20260509071828 | 45 | 50 | 7.0 | 0.0 | 0.00 | 0.00 | 0.00 | 81 | |
| 20260509061729 | 43 | 80 | 5.0 | 0.0 | 0.00 | 0.00 | 0.00 | 86 | |
| 20260509051728 | 41 | 80 | 5.0 | 0.0 | 0.00 | 0.00 | 0.00 | 86 | |
| 20260509041928 | 41 | 110 | 5.0 | 0.0 | 0.00 | 0.00 | 0.00 | 93 | |
| 20260509031729 | 41 | 90 | 3.0 | 0.0 | 0.00 | 0.00 | 0.00 | 93 | |
| 20260509021728 | 41 | 10 | 5.0 | 0.0 | 0.00 | 0.00 | 0.00 | 93 | |
| 20260509011829 | 41 | 10 | 5.0 | 0.0 | 0.00 | 0.00 | 0.00 | 99 | |
| 20260509001729 | 41 | 20 | 6.0 | 0.0 | 0.00 | 0.00 | 0.00 | 99 | |
| 20260508231728 | 41 | 20 | 6.0 | 0.0 | 0.00 | 0.00 | 0.00 | 99 | |
| 20260508221929 | 41 | 10 | 7.0 | 0.0 | 0.00 | 0.00 | 0.00 | 99 | |
| 20260508211728 | 41 | 10 | 9.0 | 0.0 | 0.00 | 0.00 | 0.00 | 99 | |
| 20260508201729 | 41 | 360 | 9.0 | 0.0 | 0.00 | 0.00 | 0.00 | 99 | |
| 20260508191829 | 41 | 360 | 10.0 | 0.0 | 0.00 | 0.00 | 0.00 | 99 | |
| 20260508181728 | 41 | 10 | 10.0 | 0.0 | 0.00 | 0.00 | 0.00 | 99 | |
| 20260508171728 | 43 | 350 | 7.0 | 0.0 | 0.00 | 0.00 | 0.00 | 99 | |
| 20260508161929 | 43 | 360 | 7.0 | 0.0 | 0.00 | 0.00 | 0.00 | 99 | |
| 20260508151729 | 43 | 10 | 8.0 | 0.0 | 0.00 | 0.00 | 0.00 | 99 | |
| 20260508141728 | 43 | 10 | 6.0 | 0.0 | 0.00 | 0.00 | 0.00 | 99 | |
| 20260508131828 | 43 | 10 | 5.0 | 0.0 | 0.00 | 0.00 | 0.00 | 99 |